Regional Weather Roundup
Issued by NWS

Home | Current Version | Previous Version | Graphics & Text | Print | Product List | Glossary On
Versions: 1 2 3 4 5 6 7 8 9 10 11 12 13 14 15 16 17 18 19 20 21 22 23 24 25 26 27 28 29 30 31 32 33 34 35 36 37 38 39 40 41 42 43 44 45 46 47 48 49
000
ASUS43 KDMX 210307
RWRIA

WEATHER ROUNDUP FOR IOWA
NATIONAL WEATHER SERVICE DES MOINES IA
1000 PM CDT SAT SEP 20 2014

NOTE: "FAIR" INDICATES FEW OR NO CLOUDS BELOW 12,000 FEET WITH NO
SIGNIFICANT WEATHER AND/OR OBSTRUCTIONS TO VISIBILITY.

* - THESE STATIONS ARE NOT NWS STATIONS...THUS NOT UNDER NWS
QUALITY CONTROL.  THEY ALSO DO NOT REPORT WEATHER SUCH
AS PRECIPITATION OR FOG.

IAZ001>003-012>014-020>022-031>034-043>046-210400-
   NORTHWEST IOWA

CITY           SKY/WX    TMP DP  RH WIND       PRES   REMARKS
CARROLL *      CLOUDY    66  50  55 N15G22    29.99R
CHEROKEE *     CLEAR     63  54  72 CALM      30.01R
DENISON *      PTCLDY    66  54  63 N12G18    29.99R
LE MARS *      CLEAR     64  52  63 N7        30.03R
ORANGE CITY *  CLEAR     64  46  52 N7        30.02R
SHELDON *      CLEAR     57  50  77 NW7       30.00R
SIOUX CITY     CLEAR     69  50  50 N10       30.02R
SPENCER        PTCLDY    58  53  84 NW6       29.99R
STORM LAKE *   CLEAR     61  54  77 N9        30.00R
$$

IAZ055>058-069>071-079>083-090>094-210400-
   SOUTHWEST IOWA

CITY           SKY/WX    TMP DP  RH WIND       PRES   REMARKS
ATLANTIC *     CLEAR     70  59  68 NW13G23   29.96R
AUDUBON *      CLEAR     68  54  60 N14G28    30.00R
CLARINDA *     PTCLDY    63  61  94 CALM      29.97S
COUNCIL BLFS * PTCLDY    72  57  60 NW9       29.98R
CRESTON *      CLEAR     64  59  82 W7        29.95R
HARLAN  *      CLEAR     70  57  64 N15G23    30.02R
LAMONI           N/A     67  62  84 W9        29.94R
RED OAK *      MOCLDY    70  61  73 VRB6      29.96R
SHENANDOAH *   PTCLDY    64  61  88 CALM      29.97R
$$

IAZ047>049-059>061-072>074-084-210400-
   CENTRAL IOWA

CITY           SKY/WX    TMP DP  RH WIND       PRES   REMARKS
AMES           PTCLDY    66  53  63 N24G38    29.95R
ANKENY *       MOCLDY    73  55  53 N20G28    29.91R
CHARITON *     CLEAR     70  64  83 W9        29.90S
DES MOINES     PTCLDY    71  58  63 W9        29.88R
GRINNELL*      CLEAR     70  57  64 W10G16    29.86R
KNOXVILLE *    CLEAR     68  61  77 SW12      29.87R
MARSHALLTOWN   PTCLDY    64  58  80 N16       29.91R
PELLA *        CLEAR     72  59  64 W9        29.87S
PERRY *          N/A     68  48  49 N22G31    29.96R
$$

IAZ004>006-015-016-023>025-035-036-210400-
   NORTH CENTRAL IOWA

CITY           SKY/WX    TMP DP  RH WIND       PRES   REMARKS
ALGONA *       CLEAR     61  55  82 NW10      29.97R
CLARION *        N/A     59  55  88 NW12G22   29.95R
ESTHERVILLE    CLEAR     56  53  90 NW7       29.97R
FORT DODGE *   PTCLDY    63  52  67 N8        29.98R
MASON CITY     CLEAR     58  55  90 NW16G24   29.94R
FOREST CITY *  CLEAR     59  55  88 NW12G21   29.93R
IOWA FALLS *     N/A     61  55  82 NW14G21   29.94R
$$

IAZ007>011-017>019-026>030-037>042-050>054-066-210400-
   NORTHEAST IOWA

CITY           SKY/WX    TMP DP  RH WIND       PRES   REMARKS
CEDAR RAPIDS   PTCLDY    69  61  75 W14       29.82R
CHARLES CITY * CLEAR     59  55  88 NW15G28   29.90R
CLINTON *      CLEAR     66  64  94 SW7       29.80F
DECORAH *      CLOUDY    59  57  94 VRB6G12   29.83R
DUBUQUE        HVY RAIN  63  61  93 NW22G33   29.83R FOG
MONTICELLO *   LGT RAIN  68  61  77 NW17G33   29.83R
OELWEIN *      MOCLDY    61  59  94 NW7       29.88R
WATERLOO       MOCLDY    61  58  90 NW10      29.88R
$$

IAZ064-065-067-068-078-210400-
   EAST CENTRAL IOWA

CITY           SKY/WX    TMP DP  RH WIND       PRES   REMARKS
DAVENPORT      CLEAR     70  65  84 SW12      29.79F
IOWA CITY        N/A     70  65  84 W8        29.82S
MT. PLEASANT * CLEAR     70  68  94 SW8       29.85S
MUSCATINE *    CLEAR     72  68  88 SW13      29.81S
QUAD CITIES    CLEAR     70  66  87 W8        29.80S
$$

IAZ062-063-075>077-085>089-095>099-210400-
   SOUTHEAST IOWA

CITY           SKY/WX    TMP DP  RH WIND       PRES   REMARKS
BURLINGTON     CLEAR     73  69  87 W7        29.85R
FORT MADISON * CLEAR     73  70  88 SW8       29.87R
KEOKUK *       CLEAR     72  70  94 W9        29.86S
OSKALOOSA *      N/A     68  66  94 W7        29.87R
CENTERVILLE *  CLEAR     68  68 100 W7        29.92R
OTTUMWA        CLEAR     70  66  87 W7        29.87R
WASHINGTON *   CLEAR     70  68  94 W8        29.84S
$$

ABBREVIATIONS USED IN REMARKS
   TC - TEMPERATURES IN CELSIUS
  WCI - WIND CHILL INDEX
   HX - HEAT INDEX
  VSB - VISIBILITY
$$



USA.gov is the U.S. government's official web portal to all federal, state and local government web resources and services.